User: anonymous   Login
Location: Unspecified
(0.0000°N, 0.0000°E)
Time: 01:27:36
(UTC+02:00)
Language:

Cosmos 1980 Rocket - Orbit

View from above orbital plane
View from above orbital plane
View from above satellite
View from above satellite

Ground track
Ground track

The orbit data is extracted from the following two-line orbital elements,

1 19650U 88102B   18109.36621217 -.00000223  00000-0 -89113-4 0  9992
2 19650  70.9979  91.2805 0012008  74.5248 285.7200 14.15766956519324
Epoch (UTC): 19 April 2018 08:47:20
Eccentricity: 0.0012008
inclination: 70.9979°
perigee height: 831 km
apogee height: 848 km
right ascension of ascending node: 91.2805°
argument of perigee: 74.5248°
revolutions per day: 14.15766956
mean anomaly at epoch: 285.7200°
orbit number at epoch: 51932

The dashed part of the orbit path shows where the satellite is in the earth's shadow,  

DLR